Location: Unspecified
(43.4354°N, 0.0000°E)
Time: 13:27:36
(UTC+00:00)

Courier 1B Rocket - Pass Details

Date: 25 June 2019
Orbit: 920 x 1202 km, 28.2° (Epoch: 22 July)

Event Time Altitude Azimuth Distance (km) Brightness Sun altitude
Exits shadow 02:41:09 13° 187° (S) 2,682 6.8 -13.9°
Maximum altitude 02:43:36 16° 164° (SSE) 2,487 6.8 -13.6°
Drops below altitude 10° 02:47:28 10° 130° (SE) 2,830 7.4 -13.2°
Sets 02:51:17 0° 109° (ESE) 3,724 8.3 -12.8°
